Burlington, WA
on Wednesday, January 23, 2013

Wednesday
Previous Day Next Day
Daily Summary
 ActualAverage (KBLI)Record (KBLI)
Temperature
Mean Temperature °F 40°F  
Max Temperature 48°F 46°F 60°F (2005)
Min Temperature 33°F 33°F 9°F (1969)
Degree Days
Heating Degree Days 24 25  
Month to date heating degree days 598  
Cooling Degree Days 0 0  
Month to date cooling degree days 0  
Year to date cooling degree days 0  
Moisture
Dew Point 40°F   
Average Humidity 98    
Maximum Humidity 100    
Minimum Humidity 81    
Precipitation
Precipitation 0.13 in 0.15 in 2.42 in (1982)
Month to date precipitation 3.54  
Year to date precipitation 3.54  
Wind
Wind Speed 4 mph   
Max Wind Speed 13 mph   
Max Gust Speed 20 mph   
Visibility 8 miles   
Events     

Key: T is trace of precipitation, MM is missing value
Source: NWS Daily Summary
Time(PST)TemperatureDew PointHumidity Pressure Visibility Wind DirectionWind SpeedGust SpeedPrecipitationEvents Conditions
12:15 AM 33.8°F 33.8°F 100% 29.94 in 5.0 miles Calm Calm - 0.00 in   Overcast
12:35 AM 33.8°F 33.8°F 100% 29.94 in 3.0 miles Calm Calm - 0.00 in   Mostly Cloudy
12:55 AM 33.8°F 33.8°F 100% 29.94 in 5.0 miles Calm Calm - 0.00 in   Overcast
1:15 AM 33.8°F 33.8°F 100% 29.92 in 5.0 miles North 4.6 mph - 0.00 in   Scattered Clouds
1:35 AM 33.8°F 33.8°F 100% 29.95 in 6.0 miles SSW 4.6 mph - 0.00 in   Clear
1:55 AM 33.8°F 33.8°F 100% 29.94 in 7.0 miles North 3.5 mph - 0.00 in   Scattered Clouds
2:15 AM 35.6°F 35.6°F 100% 29.98 in 8.0 miles South 6.9 mph - 0.00 in   Mostly Cloudy
2:35 AM 35.6°F 35.6°F 100% 29.93 in 9.0 miles Calm Calm - 0.00 in   Overcast
2:55 AM 35.6°F 35.6°F 100% 29.94 in 7.0 miles SSW 3.5 mph - 0.00 in   Overcast
3:15 AM 35.6°F 35.6°F 100% 29.94 in 5.0 miles Calm Calm - 0.00 in   Mostly Cloudy
3:35 AM 35.6°F 35.6°F 100% 29.96 in 7.0 miles Calm Calm - 0.00 in   Partly Cloudy
3:55 AM 35.6°F 35.6°F 100% 29.95 in 7.0 miles Calm Calm - 0.00 in   Clear
4:15 AM 35.6°F 35.6°F 100% 29.96 in 6.0 miles ENE 3.5 mph - 0.00 in   Clear
4:55 AM 35.6°F 35.6°F 100% 29.94 in 10.0 miles ENE 6.9 mph - 0.00 in   Partly Cloudy
5:15 AM 35.6°F 35.6°F 100% 29.93 in 10.0 miles East 8.1 mph - 0.00 in   Partly Cloudy
5:35 AM 37.4°F 37.4°F 100% 29.91 in 10.0 miles East 5.8 mph - 0.00 in   Scattered Clouds
5:55 AM 37.4°F 37.4°F 100% 29.89 in 10.0 miles ENE 9.2 mph - 0.00 in   Scattered Clouds
6:15 AM 37.4°F 37.4°F 100% 29.89 in 10.0 miles ENE 6.9 mph - 0.00 in   Mostly Cloudy
6:35 AM 39.2°F 37.4°F 93% 29.88 in 10.0 miles NE 3.5 mph - 0.00 in   Overcast
6:55 AM 39.2°F 37.4°F 93% 29.87 in 10.0 miles ENE 3.5 mph - 0.00 in   Overcast
7:15 AM 39.2°F 39.2°F 100% 29.88 in 10.0 miles SSE 3.5 mph - 0.00 in   Overcast
7:35 AM 37.4°F 37.4°F 100% 29.87 in 10.0 miles Calm Calm - 0.00 in   Overcast
7:55 AM 39.2°F 39.2°F 100% 29.86 in 10.0 miles ENE 5.8 mph - 0.00 in   Overcast
8:15 AM 39.2°F 39.2°F 100% 29.86 in 10.0 miles Calm Calm - 0.00 in   Overcast
8:35 AM 37.4°F 37.4°F 100% 29.86 in 10.0 miles Calm Calm - 0.00 in   Mostly Cloudy
9:15 AM 37.4°F 37.4°F 100% 29.87 in 9.0 miles Calm Calm - 0.00 in   Partly Cloudy
9:35 AM 39.2°F 39.2°F 100% 29.88 in 10.0 miles Calm Calm - 0.00 in   Scattered Clouds
9:55 AM 39.2°F 39.2°F 100% 29.88 in 8.0 miles SSW 3.5 mph - 0.00 in   Mostly Cloudy
10:15 AM 42.8°F 39.2°F 87% 29.88 in 8.0 miles Calm Calm - 0.00 in   Mostly Cloudy
10:35 AM 42.8°F 39.2°F 87% 29.87 in 8.0 miles SE 6.9 mph - 0.00 in   Overcast
10:55 AM 44.6°F 39.2°F 81% 29.87 in 8.0 miles SE 6.9 mph - 0.00 in   Overcast
11:15 AM 44.6°F 42.8°F 93% 29.85 in 4.0 miles ESE 11.5 mph - 0.00 in   Overcast
11:35 AM 46.4°F 44.6°F 93% 29.85 in 10.0 miles SE 11.5 mph 17.3 mph 0.00 in   Mostly Cloudy
11:55 AM 48.2°F 44.6°F 87% 29.86 in 10.0 miles SSE 11.5 mph - 0.00 in   Mostly Cloudy
12:15 PM 46.4°F 44.6°F 93% 29.85 in 10.0 miles SSE 11.5 mph 17.3 mph 0.00 in   Mostly Cloudy
12:35 PM 46.4°F 44.6°F 93% 29.83 in 10.0 miles SE 11.5 mph 16.1 mph 0.00 in   Mostly Cloudy
12:55 PM 46.4°F 44.6°F 93% 29.82 in 10.0 miles SE 11.5 mph 19.6 mph 0.00 in   Mostly Cloudy
1:15 PM 46.4°F 44.6°F 93% 29.82 in 10.0 miles SE 12.7 mph 18.4 mph 0.00 in   Overcast
1:35 PM 46.4°F 44.6°F 93% 29.83 in 10.0 miles South 6.9 mph 17.3 mph 0.00 in   Overcast
1:55 PM 46.4°F 44.6°F 93% 29.83 in 7.0 miles SSE 6.9 mph - 0.00 in   Overcast
2:15 PM 46.4°F 46.4°F 100% 29.84 in 4.0 miles SSW 9.2 mph - 0.00 in   Overcast
2:35 PM 42.8°F 42.8°F 100% 29.84 in 7.0 miles South 5.8 mph - 0.01 in   Overcast
2:55 PM 42.8°F 42.8°F 100% 29.85 in 5.0 miles SSW 6.9 mph - 0.02 in   Overcast
3:15 PM 42.8°F 42.8°F 100% 29.87 in 4.0 miles SW 8.1 mph - 0.02 in   Overcast
3:35 PM 42.8°F 42.8°F 100% 29.88 in 5.0 miles SSW 10.4 mph - 0.03 in   Mostly Cloudy
3:55 PM 42.8°F 42.8°F 100% 29.89 in 4.0 miles SSW 11.5 mph 16.1 mph 0.06 in   Overcast
4:15 PM 42.8°F 42.8°F 100% 29.90 in 3.0 miles SSW 9.2 mph - 0.02 in   Overcast
4:35 PM 41.0°F 41.0°F 100% 29.91 in 4.0 miles South 6.9 mph - 0.03 in   Overcast
5:15 PM 41.0°F 41.0°F 100% 29.92 in 6.0 miles South 5.8 mph - 0.01 in   Overcast
5:35 PM 41.0°F 41.0°F 100% 29.94 in 5.0 miles South 5.8 mph - 0.01 in   Overcast
5:55 PM 41.0°F 41.0°F 100% 29.94 in 7.0 miles South 6.9 mph - 0.01 in   Overcast
6:15 PM 41.0°F 41.0°F 100% 29.94 in 9.0 miles South 8.1 mph - 0.00 in   Overcast
6:35 PM 41.0°F 41.0°F 100% 29.94 in 10.0 miles South 6.9 mph - 0.00 in   Mostly Cloudy
6:55 PM 41.0°F 41.0°F 100% 29.95 in 10.0 miles South 6.9 mph - 0.00 in   Mostly Cloudy
7:15 PM 41.0°F 41.0°F 100% 29.97 in 10.0 miles South 6.9 mph - 0.00 in   Overcast
7:35 PM 41.0°F 41.0°F 100% 29.98 in 10.0 miles South 8.1 mph - 0.00 in   Overcast
7:55 PM 41.0°F 41.0°F 100% 29.99 in 8.0 miles South 8.1 mph - 0.00 in   Overcast
8:15 PM 41.0°F 41.0°F 100% 30.00 in 7.0 miles SSE 8.1 mph - 0.00 in   Overcast
8:35 PM 41.0°F 41.0°F 100% 30.02 in 5.0 miles South 8.1 mph - 0.01 in   Overcast
8:55 PM 41.0°F 41.0°F 100% 30.03 in 5.0 miles South 8.1 mph - 0.01 in   Overcast
9:15 PM 41.0°F 41.0°F 100% 30.05 in 9.0 miles South 9.2 mph - 0.00 in   Overcast
9:55 PM 41.0°F 41.0°F 100% 30.06 in 8.0 miles South 9.2 mph - 0.00 in   Overcast
10:15 PM 42.8°F 42.8°F 100% 30.08 in 9.0 miles South 9.2 mph - 0.00 in   Overcast
10:35 PM 42.8°F 42.8°F 100% 30.09 in 9.0 miles South 5.8 mph - 0.00 in   Overcast
10:55 PM 42.8°F 42.8°F 100% 30.10 in 8.0 miles SSE 8.1 mph - 0.00 in   Overcast
11:15 PM 42.8°F 42.8°F 100% 30.11 in 8.0 miles SSW 6.9 mph - 0.00 in   Overcast
11:35 PM 42.8°F 42.8°F 100% 30.12 in 8.0 miles SSW 4.6 mph - 0.00 in   Mostly Cloudy
11:55 PM 41.0°F 41.0°F 100% 30.14 in 8.0 miles South 4.6 mph - 0.00 in   Overcast
Moon Phase
Jan. 23 Jan. 26 Feb. 03 Feb. 10 Feb. 17
Sunrise:07:49 AM (PST) Moon Rise:02:05 PM (PST)
Sunset:04:54 PM (PST) Moon Set:05:08 AM (PST)

Copyright © 2014 The Weather Underground, Inc.